Regional Weather Roundup
Issued by NWS Green Bay, WI

Home | Current Version | Previous Version | Text Only | Print | Product List | Glossary On
Versions: 1 2 3 4 5 6 7 8 9 10 11 12 13 14 15 16 17 18 19 20 21 22 23 24 25 26 27 28 29 30 31 32 33 34 35 36 37 38 39 40 41 42 43 44 45 46 47 48 49 50
000
ASUS43 KGRB 240611
RWRGRB

NORTH-CENTRAL AND NORTHEAST WISCONSIN REGIONAL WEATHER ROUNDUP
NATIONAL WEATHER SERVICE GREEN BAY WI
1200 AM CST FRI FEB 24 2017

WIZ005-009-010>012-018-019-240700-
NORTH CENTRAL WISCONSIN

CITY           SKY/WX    TMP DP  RH WIND       PRES   REMARKS
IRONWOOD       CLOUDY    25  21  85 N5        29.94S
MANITOWISH WTR CLOUDY    24  24 100 N3        29.90S
ARBOR VITAE    CLOUDY    28  25  89 N3          N/A
EAGLE RIVER    CLOUDY    26  22  83 NE6       29.88F
LAND O LAKES   CLOUDY    25  23  93 CALM      29.91S
RHINELANDER    CLOUDY    29  21  72 NE7       29.89S
PHILLIPS       CLOUDY    27  24  87 NE10G16   29.88F
ANTIGO         CLOUDY    30  25  82 NE16      29.85F
TOMAHAWK       CLOUDY    28  20  71 NE8       29.88F
MERRILL        NOT AVBL
$$

WIZ013-073-240700-
NORTHEAST WISCONSIN

CITY           SKY/WX    TMP DP  RH WIND       PRES   REMARKS
IRON MOUNTAIN  CLOUDY    30  22  72 N10       29.90R
MARINETTE      CLOUDY    33  24  69 E15       29.91F
OCONTO         CLOUDY    32  27  80 NE7       29.88F
$$

WIZ017-030-035>037-045-240700-
CENTRAL WISCONSIN

CITY           SKY/WX    TMP DP  RH WIND       PRES   REMARKS
MEDFORD        LGT SNOW  28  25  88 NE10G20   29.82F
WAUSAU         FLURRIES  33  26  75 NE12      29.81F
MOSINEE        LGT SNOW  32  30  93 E10       29.84F
MARSHFIELD     LGT SNOW  31  29  92 NE8       29.83R VSB 3/4
WISC RAPIDS    LGT SNOW  34  28  79 E14G25    29.80F
STEVENS POINT  LGT SNOW  31  26  81 NE10      29.82F
WAUPACA        CLOUDY    36  26  66 NE10G21   29.83S
SHAWANO        CLOUDY    34  28  79 NE10      29.86F
CLINTONVILLE   CLOUDY    34  27  75 E12       29.85F
WAUTOMA        LGT SNOW  30  28  93 NE15G22   29.78F VSB 3/4
$$

WIZ038-039-048-051-240700-
FOX VALLEY

CITY           SKY/WX    TMP DP  RH WIND       PRES   REMARKS
NWS GREEN BAY  FLURRIES  34  30  85 NE17      29.84F
APPLETON       FLURRIES  32  27  80 NE13G23   29.80F
OSHKOSH        LGT SNOW  32  29  88 NE15      29.80F FOG
FOND DU LAC    HVY SNOW  32  29  88 NE21G26   29.79F VSB 1/4
$$

WIZ022-050-052-240700-
EAST CENTRAL WISCONSIN

CITY           SKY/WX    TMP DP  RH WIND       PRES   REMARKS
EPHRAIM        CLOUDY    32  23  68 NE9G16    29.90F
WASHINGTON ISL CLOUDY    32  22  66 NE9       29.91F
STURGEON BAY   FLURRIES  33  24  69 NE10G18   29.89F
MANITOWOC      LGT SNOW  33  30  88 NE15G23   29.82F FOG
SHEBOYGAN      SNOW      33  31  92 NE23G36   29.80F VSB 1/2
$$

LMZ563-521-522-541>543-240700-
LAKESHORE

STATION/POSITION TIME  TEMP    WIND        PRES    VSBY  WAVE
                       AIR SEA DIR/SP/G                  HT/PER
                 (UTC) (F)     (DEG/KT/KT) (MB)    (MI)  (FT/S)
SHEBOYGAN LKSHOR 0500   33      20/ 28/ 31 1010.4F
KEWAUNEE LKSHORE 0548           40/ 18/ 23 1010.8F
NORTHPORT PIER   0540   33      50/ 10/ 12 1012.9F
SISTER BAY LKSHO 0505   33      20/  6/ 12   N/A
CHAMBERS ISLAND  0540   33      40/ 12/ 16 1012.5F
MENOMINEE LKSHOR 0548           40/ 14/ 18 1012.1F
$$




USA.gov is the U.S. government's official web portal to all federal, state and local government web resources and services.